Tampa, FL

7:08 PM EDT on April 25, 2018 (GMT -0400)
Tampa International

Weather History for KTPA - October, 2012

Change the Weather History Date:

Monday, October 22, 2012

  Actual Average Record
Temperature  
Mean Temperature 76 °F 75 °F  
Max Temperature 86 °F 83 °F 91 °F (1990)
Min Temperature 66 °F 66 °F 48 °F (1964)
Degree Days  
Heating Degree Days 0 0  
Month to date heating degree days 0 0  
Since 1 July heating degree days 0 0  
Cooling Degree Days 11 10  
Month to date cooling degree days 299 271  
Year to date cooling degree days 3728 3287  
Growing Degree Days 26 (Base 50)    
Moisture  
Dew Point 59 °F    
Average Humidity 57    
Maximum Humidity 73    
Minimum Humidity 40    
Precipitation  
Precipitation 0.00 in 0.06 in 1.10 in (1947)
Month to date precipitation 3.10 1.79  
Year to date precipitation 53.63 41.81  
Sea Level Pressure  
Sea Level Pressure 30.06 in    
Wind  
Wind Speed 8 mph (NE)    
Max Wind Speed 15 mph    
Max Gust Speed 22 mph    
Visibility 10 miles    
Events      
T = Trace of Precipitation, MM = Missing Value Source: NWS Daily Summary

Daily Weather History Graph

Daily Weather History Graph

Search for Another Location

Airport or City:

Astronomy

Oct. 22, 2012 Rise Set
Actual Time 7:34 AM EDT 6:53 PM EDT
Civil Twilight 7:11 AM EDT 7:17 PM EDT
Nautical Twilight 6:43 AM EDT 7:44 PM EDT
Astronomical Twilight 6:16 AM EDT 8:12 PM EDT
Moon 2:29 PM EDT (10/22) 12:55 AM EDT (10/22)
Length of Visible Light 12h 06m
Length of Day
11h 18m
First Quarter, 56% of the Moon is Illuminated
Oct 22
First Quarter
Oct 29
Full
Nov 6
Last Quarter
Nov 13
New
Nov 20
First Quarter

Hourly Weather History & Observations

Time (EDT) Temp. Heat Index Dew Point Humidity Pressure Visibility Wind Dir Wind Speed Gust Speed Precip Events Conditions
12:53 AM 68.0 °F - 57.0 °F 68% 30.06 in 10.0 mi Variable 4.6 mph - N/A   Clear
1:53 AM 68.0 °F - 57.0 °F 68% 30.06 in 10.0 mi NE 4.6 mph - N/A   Clear
2:53 AM 66.9 °F - 57.0 °F 70% 30.06 in 10.0 mi NNE 6.9 mph - N/A   Clear
3:53 AM 66.0 °F - 57.0 °F 73% 30.05 in 10.0 mi NNE 6.9 mph - N/A   Clear
4:53 AM 66.0 °F - 57.0 °F 73% 30.04 in 10.0 mi NE 6.9 mph - N/A   Clear
5:53 AM 66.0 °F - 57.0 °F 73% 30.05 in 10.0 mi NNE 6.9 mph - N/A   Clear
6:53 AM 66.9 °F - 57.9 °F 73% 30.06 in 10.0 mi NE 4.6 mph - N/A   Clear
7:53 AM 66.0 °F - 57.9 °F 75% 30.08 in 10.0 mi Variable 5.8 mph - N/A   Partly Cloudy
8:53 AM 69.1 °F - 59.0 °F 70% 30.10 in 10.0 mi NE 6.9 mph - N/A   Partly Cloudy
9:53 AM 73.9 °F - 60.1 °F 62% 30.11 in 10.0 mi NE 6.9 mph - N/A   Scattered Clouds
10:53 AM 77.0 °F - 60.1 °F 56% 30.10 in 10.0 mi NE 8.1 mph - N/A   Partly Cloudy
11:53 AM 80.1 °F 80.9 °F 60.1 °F 50% 30.09 in 10.0 mi NE 9.2 mph - N/A   Scattered Clouds
12:53 PM 82.9 °F 83.2 °F 60.1 °F 46% 30.07 in 10.0 mi East 9.2 mph 20.7 mph N/A   Scattered Clouds
1:53 PM 82.0 °F 82.4 °F 60.1 °F 47% 30.04 in 10.0 mi NE 9.2 mph 20.7 mph N/A   Scattered Clouds
2:53 PM 84.9 °F 84.4 °F 59.0 °F 41% 30.01 in 10.0 mi ENE 10.4 mph 18.4 mph N/A   Scattered Clouds
3:53 PM 84.0 °F 83.5 °F 57.9 °F 41% 30.00 in 10.0 mi NE 11.5 mph 16.1 mph N/A   Scattered Clouds
4:53 PM 84.9 °F 83.9 °F 57.0 °F 38% 29.99 in 10.0 mi ENE 10.4 mph 17.3 mph N/A   Scattered Clouds
5:53 PM 82.9 °F 83.2 °F 60.1 °F 46% 30.01 in 10.0 mi Variable 6.9 mph 16.1 mph N/A   Scattered Clouds
6:53 PM 81.0 °F 81.3 °F 59.0 °F 47% 30.02 in 10.0 mi NE 5.8 mph - N/A   Scattered Clouds
7:53 PM 79.0 °F - 59.0 °F 50% 30.04 in 10.0 mi NE 6.9 mph - N/A   Partly Cloudy
8:53 PM 75.9 °F - 61.0 °F 60% 30.07 in 10.0 mi ENE 9.2 mph - N/A   Clear
9:53 PM 75.0 °F - 62.1 °F 64% 30.08 in 10.0 mi NE 6.9 mph 17.3 mph N/A   Clear
10:53 PM 73.0 °F - 62.1 °F 68% 30.09 in 10.0 mi NE 6.9 mph - N/A   Clear
11:53 PM 72.0 °F - 61.0 °F 68% 30.09 in 10.0 mi NE 8.1 mph - N/A   Partly Cloudy